TimeCST,TemperatureF,Dew PointF,Humidity,Sea Level PressureIn,VisibilityMPH,Wind Direction,Wind SpeedMPH,Gust SpeedMPH,PrecipitationIn,Events,Conditions,WindDirDegrees,DateUTC
12:55 AM,24.4,16.0,70,30.43,10.0,NNW,11.5,-,N/A,,Overcast,340,2013-03-06 06:55:00
1:55 AM,24.3,16.3,72,30.45,10.0,NNW,9.2,-,N/A,,Overcast,340,2013-03-06 07:55:00
2:55 AM,23.9,16.5,73,30.45,10.0,NNW,8.1,-,N/A,,Overcast,340,2013-03-06 08:55:00
3:55 AM,23.5,16.3,74,30.45,10.0,NNW,8.1,-,N/A,,Overcast,340,2013-03-06 09:55:00
4:55 AM,22.8,16.3,76,30.46,10.0,NNW,8.1,-,N/A,,Overcast,340,2013-03-06 10:55:00
5:55 AM,22.6,16.3,77,30.47,10.0,North,5.8,-,N/A,,Overcast,360,2013-03-06 11:55:00
6:55 AM,22.3,16.7,79,30.46,10.0,NNW,5.8,-,N/A,,Overcast,330,2013-03-06 12:55:00
7:55 AM,23.7,16.9,75,30.47,10.0,NNW,4.6,-,N/A,,Mostly Cloudy,340,2013-03-06 13:55:00
8:55 AM,25.5,17.2,71,30.47,10.0,Calm,Calm,-,N/A,,Partly Cloudy,0,2013-03-06 14:55:00
9:55 AM,28.4,18.0,65,30.47,10.0,ENE,4.6,-,N/A,,Partly Cloudy,70,2013-03-06 15:55:00
10:55 AM,31.1,18.5,60,30.46,10.0,Variable,4.6,-,N/A,,Clear,0,2013-03-06 16:55:00
11:55 AM,33.3,19.0,56,30.44,10.0,Calm,Calm,-,N/A,,Clear,0,2013-03-06 17:55:00
12:55 PM,34.5,19.8,55,30.43,10.0,Calm,Calm,-,N/A,,Clear,0,2013-03-06 18:55:00
1:16 PM,35.6,21.2,56,30.41,10.0,South,5.8,-,N/A,,Scattered Clouds,180,2013-03-06 19:16:00
1:22 PM,35.6,21.2,56,30.41,10.0,Calm,Calm,-,N/A,,Partly Cloudy,0,2013-03-06 19:22:00
1:55 PM,35.8,20.1,53,30.38,10.0,Variable,5.8,-,0.00,,Clear,0,2013-03-06 19:55:00
2:55 PM,37.9,20.8,50,30.36,10.0,ESE,3.5,-,N/A,,Clear,110,2013-03-06 20:55:00
3:55 PM,38.7,21.4,50,30.34,10.0,South,5.8,-,N/A,,Clear,180,2013-03-06 21:55:00
4:55 PM,38.3,21.4,51,30.32,10.0,SE,9.2,-,N/A,,Clear,130,2013-03-06 22:55:00
5:55 PM,36.3,22.1,56,30.30,10.0,ESE,8.1,-,N/A,,Clear,110,2013-03-06 23:55:00
6:55 PM,30.9,22.8,72,30.30,10.0,East,8.1,-,N/A,,Clear,80,2013-03-07 00:55:00
7:55 PM,30.7,23.5,75,30.30,10.0,ESE,9.2,-,N/A,,Clear,110,2013-03-07 01:55:00
8:55 PM,29.1,23.7,80,30.31,10.0,ESE,9.2,-,N/A,,Clear,120,2013-03-07 02:55:00
9:55 PM,28.2,23.2,81,30.30,10.0,ESE,10.4,-,N/A,,Clear,110,2013-03-07 03:55:00
10:55 PM,27.7,22.6,81,30.30,10.0,ESE,9.2,-,N/A,,Clear,110,2013-03-07 04:55:00
11:55 PM,26.6,22.1,83,30.31,10.0,ESE,8.1,-,N/A,,Clear,120,2013-03-07 05:55:00